Flag for USA

Past Weather in Columbus Junction Gas Storage Area, Iowa, USA — Yesterday and Last 2 Weeks

Now
46 °F

Clear.


Feels Like: 44 °F
Forecast: 62 / 43 °F
Wind: 6 mph from Southeast

Location: Fair Field

Current Time: Oct 14, 2019 at 8:48:09 pm

Latest Report: Oct 14, 2019 at 8:15 pm


Visibility: 1 mi

Pressure: 29.95 "Hg

Humidity: 76%

Dew Point: 39 °F

Location of Columbus Junction Gas Storage AreaLocation

Past Weather in Columbus Junction Gas Storage Area — Graph

°F

Columbus Junction Gas Storage Area Temperature Yesterday

Maximum temperature yesterday: 57 °F (at 3:15 pm)
Minimum temperature yesterday: 30 °F (at 12:55 am)
Average temperature yesterday: 42 °F

High & Low Weather Summary for the Past Weeks

 TemperatureHumidityPressure
High90 °F (Oct 1, 3:35 pm)100% (Sep 29, 7:15 pm)30.42 "Hg (Sep 29, 7:15 pm)
Low30 °F (Oct 12, 4:15 am)25% (Oct 12, 4:15 pm)29.78 "Hg (Oct 10, 4:55 pm)
Average56 °F80%30.03 "Hg
* Reported Sep 29 7:15 pm — Oct 14 7:35 pm, Columbus Junction Gas Storage Area. Weather by CustomWeather, © 2019

Note: Actual official high and low records may vary slightly from our data, if they occured in-between our weather recording intervals... More about our weather records

Advertising

Columbus Junction Gas Storage Area Weather History for the Previous 24 Hours

Scroll right to see more
 ConditionsComfort  
Time TempWeatherWind HumidityBarometerVisibility
7:35 pm
Mon, Oct 14
48 °FClear.7 mph71%29.96 "Hg1 mi
7:15 pm50 °FClear.8 mph67%29.96 "Hg1 mi
6:55 pm50 °FClear.7 mph67%29.96 "Hg1 mi
6:35 pm54 °FDense fog.8 mph58%29.96 "Hg1 mi
6:15 pm55 °FDense fog.8 mph55%29.96 "Hg1 mi
5:55 pm57 °FDense fog.7 mph51%29.98 "Hg1 mi
5:35 pm59 °FDense fog.12 mph45%29.98 "Hg1 mi
5:15 pm61 °FDense fog.8 mph42%29.98 "Hg1 mi
4:35 pm61 °FDense fog.9 mph42%29.99 "Hg1 mi
4:15 pm61 °FSunny.9 mph42%29.99 "Hg1 mi
3:55 pm61 °FDense fog.8 mph39%30.00 "Hg0 mi
3:35 pm61 °FSunny.9 mph42%30.01 "Hg1 mi
3:15 pm59 °FSunny.10 mph45%30.02 "Hg2 mi
2:55 pm59 °FSunny.5 mph45%30.02 "Hg3 mi
2:35 pm59 °FDense fog.9 mph45%30.03 "Hg0 mi
2:15 pm57 °FSunny.10 mph44%30.04 "Hg1 mi
1:55 pm57 °FDense fog.7 mph48%30.05 "Hg1 mi
1:35 pm57 °FSunny.12 mph48%30.06 "Hg1 mi
1:15 pm55 °FSunny.7 mph51%30.07 "Hg1 mi
12:55 pm55 °FSunny.No wind47%30.08 "Hg3 mi
12:35 pm54 °FDense fog.6 mph51%30.09 "Hg0 mi
12:15 pm54 °FSunny.7 mph51%30.10 "Hg2 mi
11:55 am52 °FSunny.5 mph54%30.10 "Hg9 mi
11:35 am50 °FSunny.No wind58%30.11 "Hg10 mi
11:15 am50 °FSunny.3 mph58%30.11 "Hg10 mi
10:55 am48 °FSunny.No wind62%30.11 "Hg10 mi
10:35 am48 °FSunny.No wind58%30.10 "Hg10 mi
10:15 am46 °FSunny.No wind62%30.10 "Hg10 mi
9:35 am45 °FSunny.No wind71%30.10 "Hg10 mi
9:15 am41 °FSunny.No wind87%30.10 "Hg10 mi
8:55 am39 °FSunny.No wind93%30.11 "Hg9 mi
8:35 am36 °FSunny.No wind100%30.10 "Hg10 mi
8:15 am34 °FSunny.No wind100%30.10 "Hg9 mi
7:55 am32 °FSunny.5 mph100%30.09 "Hg9 mi
7:35 am30 °FSunny.3 mph100%30.08 "Hg10 mi
6:55 am30 °FClear.3 mph100%30.08 "Hg10 mi
6:35 am32 °FClear.6 mph100%30.08 "Hg10 mi
6:15 am32 °FClear.5 mph100%30.07 "Hg10 mi
5:55 am30 °FClear.3 mph100%30.06 "Hg10 mi
5:35 am32 °FClear.6 mph100%30.06 "Hg10 mi
5:15 am32 °FClear.3 mph100%30.06 "Hg10 mi
4:55 am30 °FClear.No wind100%30.05 "Hg10 mi
4:35 am32 °FClear.5 mph100%30.04 "Hg10 mi
4:15 am32 °FClear.5 mph100%30.04 "Hg10 mi
3:55 am34 °FClear.5 mph100%30.04 "Hg10 mi
3:35 am34 °FClear.6 mph100%30.03 "Hg10 mi
3:15 am32 °FClear.6 mph100%30.03 "Hg10 mi
2:55 am32 °FClear.3 mph100%30.04 "Hg10 mi
2:35 am34 °FClear.5 mph100%30.04 "Hg10 mi
2:15 am32 °FClear.5 mph100%30.04 "Hg10 mi
1:55 am32 °FClear.6 mph100%30.04 "Hg10 mi
1:35 am34 °FClear.5 mph100%30.03 "Hg10 mi
1:15 am34 °FClear.No wind100%30.03 "Hg10 mi
12:55 am34 °FClear.No wind100%30.02 "Hg10 mi
12:35 am34 °FClear.6 mph100%30.02 "Hg10 mi
12:15 am36 °FClear.5 mph100%30.02 "Hg10 mi
11:55 pm
Sun, Oct 13
34 °FChilly.5 mph100%30.02 "HgN/A
11:35 pm34 °FClear.3 mph100%30.01 "Hg10 mi
11:15 pm36 °FClear.No wind93%30.01 "Hg10 mi
10:55 pm36 °FClear.No wind93%30.01 "Hg10 mi
10:35 pm36 °FClear.No wind93%30.00 "Hg10 mi
10:15 pm39 °FClear.3 mph87%30.00 "Hg10 mi
9:55 pm37 °FClear.5 mph93%29.99 "Hg10 mi
9:35 pm37 °FClear.6 mph93%29.99 "Hg10 mi
9:15 pm37 °FClear.7 mph93%29.98 "Hg10 mi
8:55 pm39 °FClear.7 mph87%29.97 "Hg10 mi
8:35 pm39 °FClear.6 mph87%29.96 "Hg10 mi
8:15 pm39 °FClear.7 mph87%29.95 "Hg9 mi
Weather by CustomWeather, © 2019

See weather overview